#timestamp,LO_Frequency,Hit,StdDev 
1458313215.8,286046998.1,N
1458313235.7,286047000.8,N
1458313255.5,286046999.2,N
1458313275.3,286047000.3,N
1458313295.1,286047002.2,N
1458313315.9,286047000.6,N
1458313335.7,286047002.8,N
1458313355.5,286046997.6,N
1458313375.4,286046998.1,N
1458313395.2,286046998.2,N
1458313415.0,286046997.0,N
1458313415.9,286046997.0,N
1458313435.8,286047000.7,N
1458313455.6,286046998.1,N
1458313475.4,286046998.7,N
1458313495.3,286046996.5,N
1458313515.1,286046997.5,N
1458313516.0,286046997.5,N
1458313535.8,286046998.7,N
1458313555.7,286047001.2,N
1458313575.5,286047002.2,N
1458313595.3,286047002.8,N
1458313615.2,286046996.8,N
1458313635.9,286046997.0,N
1458313655.7,286047000.7,N
1458313675.5,286046997.2,N
1458313695.4,286046998.2,N
1458313715.2,286047001.1,N
1458313735.0,286046999.4,N
1458313735.9,286046999.4,N
1458313755.8,286046997.4,N
1458313775.6,286046997.5,N
1458313795.4,286046997.3,N
1458313815.3,286046999.2,N
1458313835.1,286047002.7,N
1458313836.0,286047002.7,N
1458313855.8,286047005.0,N
1458313875.7,286047003.4,N
1458313895.5,286047002.2,N
1458313915.3,286047004.2,N
1458313935.2,286047000.2,N
1458313955.9,286047002.5,N
1458313975.7,286047000.8,N
1458313995.6,286047002.6,N
1458314015.4,286047001.4,N
1458314035.2,286047001.5,N
1458314055.0,286046999.7,N
1458314056.0,286046999.7,N
1458314075.8,286047004.4,N
1458314095.6,286047000.9,N
1458314115.4,286047000.8,N
1458314135.3,286046997.1,N
1458314155.1,286046998.2,N
1458314175.8,286047000.1,N
1458314195.7,286047004.3,N
1458314215.5,286046999.8,N
1458314235.3,286046998.9,N
1458314255.2,286047000.5,N
1458314275.9,286047001.1,N
1458314295.7,286046998.6,N
1458314315.6,286046999.4,N
1458314335.4,286046996.5,N
1458314355.2,286046998.2,N
1458314375.1,286047001.2,N
1458314376.0,286047001.2,N
1458314395.8,286047000.5,N
1458314415.6,286047001.7,N
1458314435.4,286047000.2,N
1458314455.3,286046999.2,N
1458314475.1,286046998.0,N
1458314495.8,286046996.1,N
1458314515.7,286046993.5,Y
1458314535.5,286046997.7,P
1458314555.3,286047002.4,N
1458314575.2,286047000.0,N
1458314595.0,286047000.1,N
1458314595.9,286047000.1,N
1458314615.7,286047002.1,N
1458314635.6,286046998.7,N
1458314655.4,286046999.4,N
1458314675.2,286047000.9,N
1458314695.1,286047001.1,N
1458314696.0,286047001.1,N
1458314715.8,286046999.4,N
1458314735.6,286046998.6,N
1458314755.5,286046995.3,Y
1458314775.3,286046996.1,P
1458314795.1,286046999.6,N
1458314815.9,286046996.2,N
1458314835.7,286046994.8,N
1458314855.5,286046994.4,N
1458314875.4,286046992.6,Y
1458314895.2,286046999.1,P
1458314915.0,286046997.5,N
1458314915.9,286046997.5,N
1458314935.8,286046995.3,Y
1458314955.6,286046998.1,P
1458314975.4,286046996.6,P
1458314995.3,286046993.6,P
1458315015.1,286046994.9,N
1458315016.0,286046994.9,Y
1458315035.8,286046999.0,P
1458315055.7,286047002.8,N
1458315075.5,286046998.4,N
1458315095.3,286047001.8,N
1458315115.2,286047002.7,N
1458315135.9,286047008.8,Y
1458315155.7,286047004.6,P
1458315175.6,286047003.0,N
1458315195.4,286047001.7,N
1458315215.2,286046998.5,N
1458315235.1,286046997.7,N
1458315236.0,286046997.7,N
1458315255.8,286047000.9,N
1458315275.6,286047000.6,N
1458315295.4,286047002.6,N
1458315315.3,286046999.8,N
1458315335.1,286047004.2,N
1458315355.8,286047004.2,N
1458315375.7,286047002.3,N
1458315395.5,286047005.3,N
1458315415.3,286047002.9,N
1458315435.2,286047003.9,N
1458315455.9,286047003.8,N
1458315475.7,286047001.7,N
1458315495.6,286047001.4,N
1458315515.4,286047004.4,N
1458315535.2,286047000.9,N
1458315555.0,286046996.7,N
1458315556.0,286046996.7,N
1458315575.8,286046997.3,N
1458315595.6,286046997.8,N
1458315615.4,286046996.5,N
1458315635.3,286046999.1,N
1458315655.1,286046997.1,N
1458315675.8,286046998.0,N
1458315695.7,286046995.3,N
1458315715.5,286046997.3,N
1458315735.3,286046994.4,N
1458315755.2,286046993.8,N
1458315775.9,286046990.5,N
1458315795.7,286046991.2,N
1458315815.6,286046991.5,N
1458315835.4,286046990.9,N
1458315855.2,286046994.4,N
1458315875.1,286046992.3,N
1458315876.0,286046992.3,N
1458315895.8,286046989.7,N
1458315915.6,286046988.7,N
1458315935.4,286046992.0,N
1458315955.3,286046993.3,N
1458315975.1,286046992.3,N
1458315995.8,286046990.8,N
1458316015.7,286046992.5,N
1458316035.5,286046992.0,N
1458316055.3,286046996.2,N
1458316075.2,286046992.4,N
1458316095.9,286046988.1,Y
1458316115.7,286046992.8,P
1458316135.6,286046989.6,P
1458316155.4,286046990.4,P
1458316175.2,286046990.4,Y
1458316195.1,286047000.7,P
1458316196.0,286047000.7,N
1458316215.8,286046997.3,N
1458316235.6,286047000.9,N
1458316255.5,286047000.5,N
1458316275.3,286046999.9,N
1458316295.1,286047001.3,N
1458316315.9,286047002.2,N
1458316335.7,286047001.5,N
1458316355.5,286047007.3,N
1458316375.4,286047007.1,N
1458316395.2,286047006.0,N
1458316415.0,286047003.3,N
1458316415.9,286047003.3,N
1458316435.7,286047001.4,N
1458316455.6,286047003.9,N
1458316475.4,286047004.0,N
1458316495.2,286047003.3,N
1458316515.1,286047004.7,N
1458316516.0,286047004.7,N
1458316535.8,286047003.3,N
1458316555.6,286047004.4,N
1458316575.5,286047003.8,N
1458316595.3,286047004.7,N
1458316615.1,286047004.5,N
1458316635.9,286047008.9,N
1458316655.7,286047010.8,Y
1458316675.5,286047003.6,P
1458316695.4,286047004.0,P
1458316715.2,286047000.0,N
1458316735.0,286047001.2,N
1458316735.9,286047001.2,N
1458316755.8,286047002.8,N
1458316775.6,286047001.4,N
1458316795.4,286047003.8,N
